ROMMA est une association bénévole à but non lucratif. Votre soutien est indispensable : ADHERER à ROMMA ou FAIRE un DON

Chambon - (38, Isère)

Oisans (2460 m)   Longitude: 06° 10' 42" E   Latitude: 45° 01' 32" N Station partenaire n°803
 

Détail journalier du     <<     >>

Température Humidité Vent Dir Rafale Dir. rafale Neige 1 Neige 2
Heure (°C) (%) (km/h) (km/h) (cm) (cm)
01:00 -10.2945ESE23ESE174226
02:00 -10.2949S18SSO175226
03:00 -10.1957S18SSO177227
04:00 -10.69410S21OSO176227
05:00 -10.2955E17E176227
06:00 -11.1946ESE25ESE176227
07:00 -11.29410ESE23OSO176227
08:00 -11.0949SSO21SO175227
09:00 -9.3913N15N175227
10:00 -7.1887SO23SO174226
11:00 -7.7919SO25SO174227
12:00 -6.1874SSE28SSE174226
13:00 -6.1857SSE26SO174226
14:00 -6.98811SSO29SO174227
15:00 -6.0879SO25SO174227
16:00 -7.29312SO25SO173227
17:00 -6.49511SSE36SSO175230
18:00 -5.99719SSO42SSO180231
19:00 -5.69820SSO38SSO178234
20:00 -5.59818SO36SO184240
21:00 -5.3989NNE32NNE189240
22:00 -5.2983NNE33NNE190240
23:00 -4.9984N48NE190240
minuit -4.7985N47NE187240

Graphique du 14-03-2019

 

Serveur OMMA